Temperature
20 22 23 24 24 23 22 20 20 21 20 20 20 20 20 20 20 20 20 20 20 20 20 20 20 19 19 19 19 19 18 18 18 18 18 18 18 17 17 17 17 17 17 17
21 22 23 23 24 24 24 23 22 21 20 20 20 20 20 20 20 19 19 20 20 20 20 19 19 19 19 19 18 18 18 18 18 18 18 18 17 17 17 17 17 17 17 17
19 20 22 21 22 23 23 23 22 21 20 19 19 19 19 19 19 19 19 20 19 19 20 19 19 19 19 18 18 18 18 18 17 17 17 17 17 17 17 17 17 16 16 16
17 20 20 20 21 22 22 22 21 20 19 19 19 19 19 20 20 20 20 19 19 19 19 19 18 18 18 18 18 17 17 17 17 17 17 17 16 16 16 16 16 16 16 16
16 18 19 20 20 21 21 20 20 20 19 19 19 18 18 19 20 20 19 19 19 19 19 19 18 18 18 17 17 17 17 17 17 16 16 16 16 16 16 16 16 16 16 15
16 18 18 19 19 21 20 19 19 19 19 18 18 17 17 18 19 19 19 19 18 18 18 18 18 17 17 17 17 17 16 16 16 16 16 16 16 16 16 16 15 15 15 15
16 17 17 18 19 20 19 18 18 19 19 19 17 18 17 18 18 18 18 18 18 18 18 17 17 17 17 16 16 16 16 16 16 16 16 15 15 15 15 15 15 15 15 15
15 16 17 17 18 17 17 17 18 18 18 18 17 17 17 17 17 17 17 17 17 17 17 16 16 16 16 16 16 16 15 15 15 15 15 15 15 15 15 14 14 14 14 14
14 15 15 16 17 17 17 17 17 18 18 18 17 16 16 16 16 16 16 16 16 16 16 15 15 15 15 15 15 15 15 15 15 14 14 14 14 14 14 14 14 14 14 14
14 15 15 16 17 17 17 17 17 17 17 17 16 16 15 15 15 15 15 15 15 15 15 14 14 14 15 14 14 14 14 14 14 14 14 13 13 13 13 13 13 13 13 13
14 14 15 15 16 16 16 17 17 17 16 16 16 15 15 14 14 14 14 14 14 14 14 14 14 14 14 14 14 14 14 13 13 13 13 13 13 12 13 13 13 13 12 12
14 14 14 14 15 16 16 16 16 16 15 15 15 14 14 14 14 13 13 13 13 13 13 13 13 13 13 13 13 14 13 13 13 12 12 12 12 12 12 12 12 12 12 12
15 15 15 15 15 15 15 15 16 15 15 14 14 14 14 13 13 13 13 13 13 12 12 12 12 12 12 13 13 13 13 12 12 12 12 12 12 11 11 11 11 11 11 11
15 15 14 14 14 15 15 15 15 14 14 14 13 13 13 13 13 13 12 12 12 12 12 12 12 12 12 12 12 12 12 12 12 12 12 11 11 11 11 10 10 10 10 10
15 15 14 14 14 14 14 14 14 13 13 13 13 13 13 12 12 12 11 11 11 11 11 11 11 11 11 12 12 12 11 11 11 11 11 11 11 10 10 10 10 9 9 9
14 14 14 14 14 13 13 13 13 12 12 12 12 12 12 12 11 11 11 11 11 11 11 11 11 11 11 11 11 11 11 11 11 11 11 10 10 10 10 9 9 9 9 9
13 13 13 13 13 13 13 13 12 12 12 12 12 12 11 11 11 10 10 11 11 11 11 11 11 11 11 11 11 11 11 11 11 10 10 10 10 9 9 9 9 9 8 8
13 13 13 13 13 13 12 12 12 12 12 11 11 11 11 11 10 10 10 10 10 10 10 10 10 11 11 11 11 11 11 10 10 10 10 10 9 9 9 9 8 8 8 8
13 13 13 13 13 12 12 12 11 11 11 11 11 11 10 10 10 10 10 10 10 10 10 10 10 10 10 10 10 10 10 10 10 10 9 9 9 9 8 8 8 8 7 7
12 12 12 12 12 12 11 11 11 11 11 11 11 10 10 10 10 10 10 10 10 9 10 10 10 10 10 10 10 10 10 10 9 9 9 9 8 8 8 8 7 7 7 7
12 11 11 11 11 11 11 11 11 10 10 10 10 10 10 10 10 10 10 9 9 9 9 9 9 9 9 9 9 9 9 9 9 9 8 8 8 8 7 7 7 7 7 6
11 11 11 11 11 10 10 10 10 10 10 10 10 10 10 9 9 9 9 9 9 9 9 9 9 9 9 9 9 9 9 8 8 8 8 8 7 7 7 7 6 6 6 6
11 11 11 11 10 10 10 10 10 10 10 10 10 9 9 9 9 9 9 9 9 9 9 9 9 9 9 9 8 8 8 8 8 7 7 7 7 7 6 6 6 6 6 5
11 11 10 10 10 10 10 10 10 10 10 9 9 9 9 9 9 9 9 8 8 8 8 8 8 8 8 8 8 8 8 7 7 7 7 7 6 6 6 6 6 5 5 5
10 10 10 10 10 10 10 10 10 9 9 9 9 9 9 9 9 8 8 8 8 8 8 8 8 8 8 8 7 7 7 7 7 7 7 6 6 6 6 5 5 5 5 4
10 10 10 10 10 10 10 9 9 9 9 9 9 9 9 8 8 8 8 8 8 8 8 8 8 8 7 7 7 7 7 7 6 6 6 6 6 5 5 5 5 4 4 4
10 10 10 10 10 10 9 9 9 9 9 9 9 8 8 8 8 8 8 8 8 8 8 7 7 7 7 7 7 7 6 6 6 6 6 5 5 5 5 5 4 4 4 4
Wind_Speed
4 4 2 2 4 4 6 9 9 9 9 10 9 9 8 8 8 9 9 10 10 9 8 7 7 6 7 6 6 6 6 5 5 4 4 4 3 3 2 3 3 3 4 4
2 3 1 2 4 4 5 6 6 7 4 5 6 7 8 10 11 10 9 9 9 9 8 7 7 7 7 6 5 5 6 5 4 4 3 3 3 2 2 2 2 1 2 3
2 4 3 3 4 3 2 3 8 8 8 8 9 8 9 11 10 10 10 9 8 7 7 6 5 6 7 5 4 5 4 4 4 4 3 3 3 2 2 2 1 1 1 1
1 3 3 7 4 2 4 2 4 7 10 12 11 8 6 8 11 9 9 10 8 6 6 6 5 5 5 5 5 5 4 3 3 3 3 2 2 2 2 2 2 1 2 2
3 2 3 5 4 2 2 1 2 10 12 13 13 10 5 3 7 9 8 9 7 5 6 6 6 6 6 5 5 5 3 3 2 3 3 2 2 2 2 2 2 2 2 2
3 3 4 5 7 6 4 1 1 8 13 14 11 7 4 5 8 10 10 8 7 6 7 7 5 6 7 6 5 4 3 2 2 3 3 3 2 2 2 3 3 2 2 2
3 2 4 5 8 3 4 4 2 5 9 10 6 8 10 11 10 11 11 9 8 9 8 6 6 7 7 6 4 3 3 3 3 3 3 3 3 3 3 4 4 3 3 3
4 3 5 5 3 2 3 2 4 6 6 10 13 14 14 14 12 11 11 11 10 10 9 8 7 8 8 6 3 4 5 5 5 4 3 4 4 4 4 5 5 4 4 4
4 4 3 1 2 1 3 5 4 6 7 14 17 15 14 13 12 10 11 11 9 10 10 8 8 8 8 5 4 6 7 6 6 7 6 6 6 6 5 5 5 4 4 4
2 1 2 3 4 4 3 5 6 9 11 14 17 16 15 13 12 10 10 10 10 11 10 9 8 8 7 5 6 7 8 7 7 8 7 8 7 6 6 5 4 4 4 4
1 1 4 5 4 5 5 7 9 10 12 14 17 16 15 13 12 11 10 9 10 10 10 8 7 7 7 6 7 8 8 7 7 7 7 8 9 8 7 7 5 4 3 3
4 3 3 2 2 4 5 7 10 14 13 12 14 15 14 13 11 11 11 10 10 10 9 8 7 7 7 6 6 8 8 7 6 6 6 7 8 9 14 11 13 12 9 6
3 3 5 5 4 5 7 10 12 13 14 14 12 13 14 13 11 11 11 10 10 9 8 7 7 7 6 5 6 7 7 6 5 5 5 5 6 7 7 8 12 13 12 11
5 7 8 7 7 8 11 13 14 15 14 14 13 13 14 13 12 12 11 9 9 9 8 7 7 6 5 5 7 7 6 7 6 5 5 5 6 6 6 6 6 6 8 11
5 5 8 10 10 10 11 14 16 15 15 14 13 14 14 14 13 11 10 9 10 10 8 7 7 6 4 6 7 7 6 5 5 5 5 6 6 6 6 6 6 5 5 7
7 9 12 12 12 11 12 14 15 15 15 14 14 13 13 13 13 11 10 9 10 9 7 7 7 4 4 6 7 6 6 9 8 6 6 6 6 6 6 6 6 5 5 5
9 10 11 12 11 11 11 12 13 13 14 14 14 14 14 14 13 11 10 9 9 8 7 7 5 4 5 6 6 5 5 7 9 7 6 6 6 6 6 5 5 5 5 5
7 8 10 12 13 13 13 13 14 14 14 14 15 15 14 13 12 10 9 9 9 9 7 6 5 6 6 6 6 5 6 6 6 6 6 6 6 5 6 6 6 6 4 5
10 10 11 12 13 13 13 14 13 13 13 13 14 14 12 12 11 10 9 10 10 8 5 6 9 8 7 7 8 6 6 7 7 6 6 8 7 6 6 6 5 5 5 5
11 12 13 13 13 14 14 13 14 14 13 13 14 13 12 11 10 10 10 8 5 3 4 6 7 7 7 7 9 6 7 7 7 6 6 6 6 6 6 6 6 6 6 6
11 13 14 14 14 13 13 14 14 14 12 13 13 13 11 10 9 9 9 7 3 4 6 8 6 5 6 7 9 7 7 7 6 6 6 6 6 6 6 6 6 6 6 5
11 12 14 14 14 13 11 11 12 13 12 12 12 12 12 10 9 8 7 4 4 7 6 5 5 7 8 9 7 7 7 7 6 6 6 6 6 6 6 6 5 5 5 5
11 12 13 13 13 13 12 11 12 12 12 12 12 11 10 8 6 7 5 3 4 8 6 5 8 12 11 8 7 7 7 7 7 6 6 6 5 5 5 6 5 5 5 5
11 11 11 11 12 13 12 11 10 10 11 11 10 10 10 8 5 4 4 6 8 9 6 8 12 13 11 7 7 7 7 6 6 6 6 6 6 6 5 5 5 5 5 6
11 11 11 12 11 10 11 12 12 11 10 9 9 8 7 6 6 5 5 6 8 8 6 9 12 11 8 6 6 6 6 6 6 6 6 6 6 6 5 5 5 5 5 5
9 9 8 9 8 8 8 9 8 8 8 8 7 6 6 5 6 6 6 7 8 8 6 6 7 8 6 6 6 6 6 6 7 6 6 5 5 5 5 5 6 5 5 5
9 8 8 8 8 7 8 8 9 8 8 8 7 6 6 6 6 6 7 6 6 7 6 6 6 6 6 6 6 5 5 5 5 5 5 5 4 4 5 6 5 6 6 6
Wind_Direction
215 235 201 223 227 203 176 177 177 203 194 212 194 166 145 129 125 124 126 126 129 132 134 133 136 138 140 144 144 148 150 159 173 177 178 176 182 192 199 200 214 214 214 217
323 319 325 305 274 243 212 176 170 161 195 206 160 133 127 130 132 134 131 126 127 127 127 130 137 139 137 140 143 144 150 159 165 163 162 165 183 195 194 203 209 191 215 224
292 323 27 295 262 231 215 184 159 178 195 154 141 147 150 145 146 146 138 133 135 136 133 135 140 141 139 143 138 137 147 156 162 162 164 177 185 174 189 190 168 173 196 190
105 48 215 245 278 198 158 174 161 152 154 152 149 143 138 148 144 141 137 135 132 139 137 135 132 124 123 120 124 130 129 138 143 140 155 164 162 161 154 135 135 135 115 111
117 150 282 312 327 329 138 320 135 139 140 134 119 96 73 99 133 138 137 130 130 136 135 123 121 121 116 111 113 111 109 118 132 141 144 141 151 160 147 136 119 108 105 99
115 137 217 259 295 306 100 23 304 144 148 146 129 128 155 132 116 116 113 109 106 108 106 104 105 109 107 106 108 115 124 121 117 126 132 136 140 126 113 114 117 108 85 76
145 181 258 278 304 353 123 213 235 155 154 143 138 145 141 121 107 105 104 101 98 92 87 90 95 101 100 97 104 125 116 96 90 104 122 123 112 102 106 102 95 83 75 58
148 175 247 311 2 101 193 188 127 120 125 116 116 117 117 111 105 101 98 92 90 89 79 71 77 89 87 77 75 89 90 83 76 70 81 96 97 93 92 93 89 75 68 54
172 201 243 312 135 149 133 121 105 116 118 123 122 123 121 115 112 107 102 98 94 93 83 69 65 79 82 62 64 81 85 82 78 70 63 71 81 86 88 83 82 74 70 61
100 351 30 41 60 59 86 111 116 124 125 123 122 123 118 116 113 106 100 99 97 91 86 73 63 66 69 64 72 83 85 82 81 79 73 69 69 68 76 75 77 71 65 66
106 147 62 43 60 80 80 95 110 111 116 124 124 122 119 116 113 109 103 95 94 93 89 79 68 63 58 62 80 88 87 85 83 84 88 79 70 60 64 57 66 83 76 72
200 211 147 154 97 100 103 112 119 114 106 109 117 117 116 113 111 108 103 99 95 90 88 80 71 64 56 58 76 92 89 84 85 86 85 91 93 77 59 62 57 57 61 75
165 145 122 115 94 96 108 112 111 113 117 116 112 115 115 113 109 107 104 101 100 96 91 84 76 69 59 61 75 87 93 94 91 90 91 93 97 100 89 63 57 55 53 59
125 112 105 111 114 106 107 109 107 106 107 110 113 112 111 110 109 107 105 103 100 95 89 84 79 71 61 67 74 80 88 91 93 92 94 96 96 94 95 93 78 55 43 51
91 112 126 120 110 107 110 112 111 111 111 111 112 111 111 110 108 107 104 101 96 90 84 80 75 64 59 71 76 76 83 90 89 89 90 94 93 90 88 85 81 71 55 45
106 110 116 116 115 114 116 119 119 118 117 116 113 111 109 108 106 102 99 99 97 91 84 79 73 61 63 75 80 80 86 95 96 94 92 92 93 92 89 86 82 75 68 58
120 123 125 125 122 119 118 119 121 121 120 118 116 113 109 106 102 98 94 91 91 87 79 77 74 65 65 72 82 86 87 92 94 93 92 96 99 101 100 97 92 83 71 61
116 124 129 131 129 122 117 114 114 115 118 119 116 112 111 110 108 104 100 93 84 72 59 58 67 71 67 68 81 85 88 89 90 93 94 94 99 99 98 97 93 88 73 60
104 108 112 116 117 116 116 115 114 113 114 114 112 111 110 109 108 105 98 90 86 77 50 53 67 66 66 71 80 83 87 89 87 84 90 94 92 92 94 92 88 83 77 72
104 106 109 109 109 112 113 113 112 111 113 113 110 107 105 105 105 102 94 85 82 100 88 72 68 66 68 74 80 81 83 86 87 84 84 87 89 88 85 85 86 82 79 79
110 112 114 114 111 111 113 114 115 114 113 112 112 112 111 106 102 100 97 88 60 73 79 75 70 68 73 80 79 81 83 84 84 86 88 89 88 84 81 79 78 78 79 79
111 114 116 116 116 114 111 110 112 112 111 110 111 112 109 103 98 92 86 98 92 83 79 69 71 78 83 82 80 82 83 83 83 84 87 89 91 90 87 85 81 80 80 79
110 113 114 116 118 116 112 112 114 114 113 113 114 114 111 109 109 110 99 78 88 85 80 75 82 83 85 81 80 81 82 84 85 86 85 86 88 91 92 88 86 87 83 78
110 111 113 115 115 115 115 115 114 114 113 112 113 115 115 111 96 90 110 100 93 90 85 84 82 81 83 81 82 82 82 83 85 86 86 84 83 84 86 89 88 84 82 81
111 112 114 115 117 118 118 116 112 109 107 106 106 108 111 117 120 117 105 101 98 92 84 79 79 81 83 84 86 86 84 85 91 92 88 87 86 85 84 84 84 84 80 78
111 115 115 115 118 119 117 116 116 116 115 112 105 103 103 102 104 103 97 94 94 89 81 79 80 79 81 84 87 88 87 89 92 92 96 95 92 89 89 89 89 90 91 90
106 107 107 105 104 108 111 115 119 120 120 120 116 110 108 105 100 99 97 94 92 87 84 84 83 84 85 86 85 87 89 89 91 93 94 93 93 95 97 96 95 99 102 100
Height
1447 1442 1441 1442 1444 1445 1453 1461 1470 1468 1466 1461 1458 1458 1460 1463 1467 1469 1471 1473 1476 1479 1482 1485 1488 1490 1492 1494 1496 1498 1501 1503 1504 1505 1506 1507 1507 1508 1508 1509 1509 1510 1511 1511
1447 1440 1439 1442 1441 1441 1443 1447 1452 1457 1461 1455 1456 1458 1460 1463 1467 1470 1473 1475 1477 1480 1482 1484 1488 1490 1492 1494 1496 1498 1499 1501 1502 1503 1504 1504 1504 1505 1506 1506 1506 1507 1507 1508
1458 1447 1443 1454 1445 1442 1443 1441 1446 1456 1455 1453 1457 1458 1460 1462 1465 1469 1472 1475 1478 1480 1482 1485 1488 1490 1491 1493 1495 1497 1498 1500 1501 1501 1502 1502 1503 1503 1503 1503 1504 1504 1505 1505
1461 1455 1466 1454 1438 1436 1439 1440 1439 1442 1447 1450 1454 1458 1461 1463 1466 1469 1472 1475 1479 1482 1483 1485 1487 1489 1491 1493 1494 1495 1497 1498 1498 1499 1499 1500 1501 1501 1501 1501 1502 1502 1503 1503
1466 1466 1459 1447 1439 1438 1441 1446 1440 1442 1447 1452 1456 1460 1466 1467 1468 1469 1472 1475 1479 1482 1483 1485 1487 1489 1490 1492 1493 1494 1495 1495 1496 1497 1497 1498 1499 1499 1499 1500 1500 1500 1501 1501
1463 1465 1466 1453 1439 1435 1439 1452 1444 1442 1445 1449 1454 1464 1468 1468 1468 1470 1473 1476 1479 1481 1483 1485 1487 1488 1490 1491 1492 1493 1493 1494 1494 1495 1496 1496 1497 1497 1497 1498 1498 1499 1499 1500
1462 1464 1458 1446 1439 1435 1452 1455 1446 1445 1445 1447 1451 1456 1463 1465 1469 1471 1474 1478 1480 1482 1483 1485 1487 1488 1489 1490 1491 1492 1492 1493 1493 1493 1494 1494 1495 1495 1496 1496 1497 1498 1498 1499
1460 1466 1462 1443 1440 1444 1447 1443 1444 1446 1448 1448 1452 1457 1462 1465 1469 1473 1476 1479 1481 1482 1484 1486 1487 1488 1489 1489 1490 1491 1491 1492 1492 1492 1492 1493 1494 1494 1495 1495 1496 1497 1497 1497
1453 1456 1448 1443 1442 1442 1442 1443 1445 1447 1450 1450 1453 1459 1464 1467 1472 1475 1477 1480 1482 1483 1485 1487 1488 1488 1488 1490 1490 1491 1491 1491 1491 1491 1492 1492 1493 1493 1494 1495 1496 1496 1497 1497
1449 1448 1445 1443 1442 1443 1444 1444 1445 1448 1451 1453 1455 1460 1465 1469 1473 1477 1479 1481 1483 1484 1486 1487 1488 1489 1489 1490 1491 1490 1490 1491 1491 1491 1492 1492 1493 1493 1494 1495 1496 1496 1496 1497
1449 1447 1445 1446 1445 1445 1446 1446 1447 1450 1452 1455 1458 1462 1466 1471 1475 1478 1481 1483 1484 1485 1487 1488 1489 1490 1491 1491 1491 1491 1491 1491 1492 1492 1493 1494 1494 1495 1495 1496 1497 1498 1497 1497
1449 1446 1446 1448 1447 1447 1447 1448 1449 1450 1455 1460 1461 1464 1469 1473 1477 1480 1483 1485 1486 1488 1489 1490 1491 1492 1492 1493 1493 1493 1492 1493 1493 1494 1495 1495 1496 1496 1497 1498 1499 1499 1499 1498
1443 1445 1445 1447 1448 1449 1449 1450 1452 1454 1458 1463 1467 1469 1472 1475 1480 1483 1485 1487 1488 1490 1491 1492 1493 1494 1494 1495 1495 1494 1494 1495 1496 1496 1497 1498 1498 1498 1499 1500 1501 1500 1500 1500
1443 1444 1447 1448 1449 1451 1453 1454 1456 1459 1463 1467 1470 1473 1476 1479 1482 1485 1487 1489 1491 1492 1493 1495 1495 1496 1497 1497 1497 1497 1497 1497 1498 1499 1500 1500 1501 1501 1501 1502 1502 1502 1503 1503
1445 1446 1447 1449 1452 1454 1456 1457 1460 1463 1466 1471 1474 1477 1479 1482 1485 1488 1491 1492 1494 1495 1496 1497 1498 1499 1499 1499 1499 1499 1499 1500 1500 1501 1502 1502 1503 1503 1504 1504 1504 1505 1505 1505
1446 1448 1449 1452 1454 1457 1459 1461 1463 1466 1470 1474 1477 1480 1483 1486 1489 1492 1494 1495 1496 1497 1499 1500 1501 1502 1502 1502 1502 1502 1502 1502 1503 1504 1504 1505 1505 1506 1506 1507 1507 1507 1507 1507
1447 1449 1451 1453 1456 1459 1462 1464 1466 1470 1474 1477 1480 1483 1486 1489 1492 1495 1497 1499 1499 1501 1502 1503 1503 1504 1505 1505 1504 1504 1505 1505 1506 1506 1506 1507 1508 1508 1509 1509 1509 1509 1510 1510
1448 1450 1452 1454 1457 1461 1465 1468 1471 1474 1477 1481 1483 1487 1490 1492 1495 1497 1499 1501 1502 1504 1505 1506 1506 1507 1507 1507 1507 1507 1507 1508 1508 1508 1509 1510 1510 1511 1511 1511 1511 1511 1512 1512
1451 1453 1456 1458 1461 1464 1467 1471 1474 1478 1481 1484 1487 1490 1493 1496 1498 1500 1502 1504 1505 1506 1508 1509 1509 1509 1509 1509 1510 1510 1510 1510 1510 1511 1512 1512 1513 1513 1513 1513 1513 1514 1514 1514
1454 1457 1459 1462 1465 1468 1471 1474 1478 1481 1485 1488 1491 1493 1496 1499 1502 1504 1505 1507 1508 1509 1511 1511 1512 1512 1512 1512 1512 1512 1513 1513 1513 1514 1514 1515 1515 1515 1516 1516 1516 1516 1516 1516
1457 1460 1462 1465 1469 1472 1475 1478 1481 1485 1489 1492 1494 1497 1500 1503 1505 1507 1508 1509 1511 1513 1513 1514 1514 1514 1515 1515 1515 1515 1516 1516 1516 1516 1517 1517 1518 1518 1518 1518 1518 1518 1518 1518
1460 1463 1466 1470 1473 1476 1480 1483 1486 1489 1493 1495 1498 1501 1503 1506 1508 1510 1511 1513 1514 1515 1516 1517 1517 1517 1518 1518 1518 1518 1518 1519 1519 1519 1519 1520 1520 1520 1520 1521 1521 1520 1520 1520
1464 1467 1470 1474 1477 1480 1484 1487 1490 1493 1496 1499 1502 1504 1506 1509 1511 1513 1514 1516 1517 1518 1519 1519 1520 1520 1520 1521 1521 1521 1521 1521 1521 1521 1522 1522 1522 1523 1523 1523 1523 1523 1522 1522
1468 1471 1475 1478 1481 1484 1488 1491 1494 1498 1500 1503 1506 1508 1510 1512 1514 1516 1517 1519 1520 1521 1521 1522 1522 1523 1523 1523 1523 1524 1524 1524 1524 1524 1525 1525 1525 1525 1525 1525 1525 1525 1524 1524
1472 1475 1479 1482 1485 1488 1491 1495 1498 1501 1504 1507 1509 1512 1514 1515 1517 1519 1520 1522 1523 1524 1524 1525 1525 1525 1526 1526 1526 1526 1527 1527 1527 1527 1527 1527 1527 1527 1527 1527 1526 1526 1526 1525
1477 1480 1483 1486 1489 1492 1495 1498 1501 1504 1507 1509 1512 1515 1517 1518 1520 1522 1523 1524 1525 1526 1527 1527 1528 1528 1528 1528 1529 1529 1529 1529 1529 1529 1529 1529 1529 1529 1529 1528 1528 1527 1527 1526
1481 1484 1487 1490 1493 1496 1499 1501 1504 1506 1509 1511 1514 1517 1519 1521 1522 1524 1525 1526 1527 1528 1529 1530 1530 1530 1531 1531 1531 1531 1531 1531 1531 1531 1531 1531 1531 1531 1530 1530 1529 1529 1528 1527